Dewar Lakes, Nunavut

9:40 AM EDT on July 21, 2017 (GMT -0400)
Dewar Lakes

Weather History for CWUW - September, 2012

Change the Weather History Date:

Sunday, September 16, 2012

  Actual Average Record
Temperature  
Mean Temperature 32 °F -  
Max Temperature 35 °F 23 °F 41 °F (1998)
Min Temperature 30 °F 15 °F 19 °F (1997)
Degree Days  
Heating Degree Days 32    
Moisture  
Dew Point -    
Average Humidity    
Maximum Humidity    
Minimum Humidity    
Precipitation  
Precipitation 0.00 in 0.04 in - ()
Sea Level Pressure  
Sea Level Pressure 29.71 in    
Wind  
Wind Speed 16 mph ()    
Max Wind Speed 32 mph    
Max Gust Speed 38 mph    
Visibility 1.0 miles    
Events Rain    
Averages and records for this station are not official NWS values.
T = Trace of Precipitation, MM = Missing Value Source: Averaged Metar Reports

Daily Weather History Graph

Daily Weather History Graph

Search for Another Location

Airport or City:

Trip Planner

Search our weather history database for the weather conditions in past years. The results will help you decide how hot, cold, wet, or windy it might be!

Date:

Astronomy

Sep. 16, 2012 Rise Set
Actual Time 6:05 AM EDT 7:10 PM EDT
Civil Twilight 5:06 AM EDT 8:09 PM EDT
Nautical Twilight 3:47 AM EDT 9:26 PM EDT
Astronomical Twilight 1:44 AM EDT 11:22 PM EDT
Moon 7:29 AM EDT (9/16) 6:11 PM EDT (9/16)
Length of Visible Light 15h 03m
Length of Day
13h 05m
New Moon, 0% of the Moon is Illuminated
Sep 16
New Moon
Sep 22
First Quarter
Sep 29
Full
Oct 8
Last Quarter
Oct 15
New

Hourly Weather History & Observations

Time (EDT) Temp. Windchill Dew Point Humidity Pressure Visibility Wind Dir Wind Speed Gust Speed Precip Events Conditions
12:00 AM 32.0 °F 25.6 °F - N/A% 29.87 in 0.1 mi East 6.9 mph - N/A   Overcast
12:45 AM 32.0 °F 24.2 °F - N/A% 29.74 in 0.2 mi East 9.2 mph - N/A   Overcast
1:00 AM 32.0 °F 24.8 °F - N/A% 29.86 in 0.2 mi East 8.1 mph - N/A   Overcast
1:05 AM 32.0 °F 24.2 °F - N/A% 29.74 in 0.1 mi East 9.2 mph - N/A   Overcast
1:57 AM 32.0 °F 24.8 °F - N/A% 29.75 in 0.2 mi ESE 8.1 mph - N/A   Clear
2:00 AM 32 °F - - % 29.87 in 0 mi ESE 8.1 mph - -   Overcast
2:00 AM 32.0 °F 24.8 °F - N/A% 29.87 in 0.2 mi ESE 8.1 mph - N/A   Overcast
3:00 AM 32.0 °F 23.6 °F - N/A% 29.86 in 0.1 mi SE 10.4 mph - N/A   Clear
3:45 AM 32.0 °F 24.2 °F - N/A% 29.74 in 0.5 mi SE 9.2 mph - N/A   Overcast
3:48 AM 32.0 °F 24.8 °F - N/A% 29.74 in 1.0 mi ESE 8.1 mph - N/A   Clear
3:49 AM 32.0 °F 25.6 °F - N/A% 29.74 in 1.0 mi ESE 6.9 mph - N/A   Clear
3:50 AM 32.0 °F 24.8 °F - N/A% 29.74 in 0.6 mi ESE 8.1 mph - N/A   Clear
3:55 AM 32.0 °F 24.8 °F - N/A% 29.74 in 0.4 mi ESE 8.1 mph - N/A   Clear
4:00 AM 32.0 °F 23.0 °F - N/A% 29.86 in 0.2 mi ESE 11.5 mph - N/A   Clear
4:03 AM 32.0 °F 22.5 °F - N/A% 29.74 in 0.1 mi SE 12.7 mph - N/A   Clear
4:39 AM 30.2 °F 18.9 °F - N/A% 29.74 in 0.1 mi ESE 16.1 mph - N/A   Light Freezing Drizzle
4:59 AM 30.2 °F 20.2 °F - N/A% 29.74 in 0.1 mi ESE 12.7 mph - N/A   Clear
5:00 AM 31 °F - - % 29.86 in 0 mi ESE 13.8 mph - -  
5:00 AM 30.2 °F 20.2 °F - N/A% 29.86 in 0.1 mi ESE 12.7 mph - N/A   Clear
5:19 AM 30.2 °F 19.8 °F - N/A% 29.73 in 0.1 mi ESE 13.8 mph - N/A   Light Freezing Drizzle
5:35 AM 30.2 °F 19.8 °F - N/A% 29.74 in 0.1 mi ESE 13.8 mph - N/A   Light Freezing Drizzle
5:37 AM 30.2 °F 19.8 °F - N/A% 29.74 in 0.1 mi ESE 13.8 mph - N/A   Light Freezing Drizzle
5:52 AM 30.2 °F 19.3 °F - N/A% 29.73 in 0.1 mi East 15.0 mph - N/A   Clear
5:58 AM 30.2 °F 19.3 °F - N/A% 29.73 in 0.1 mi ESE 15.0 mph - N/A   Light Freezing Drizzle
6:00 AM 30.2 °F 18.9 °F - N/A% 29.86 in 0.1 mi ESE 16.1 mph - N/A   Light Freezing Drizzle
6:20 AM 32.0 °F 21.6 °F - N/A% 29.73 in 0.1 mi ESE 15.0 mph - N/A   Light Freezing Drizzle
6:47 AM 32.0 °F 23.6 °F - N/A% 29.73 in 0.1 mi ESE 10.4 mph - N/A   Clear
7:00 AM 32.0 °F 22.5 °F - N/A% 29.86 in 0.1 mi ESE 12.7 mph - N/A   Clear
7:59 AM 32.0 °F 21.2 °F - N/A% 29.73 in 0.1 mi ESE 16.1 mph - N/A   Clear
8:00 AM 31 °F - - % 29.84 in 0 mi ESE 16.1 mph - -  
8:00 AM 32.0 °F 20.8 °F - N/A% 29.84 in 0.1 mi ESE 17.3 mph - N/A   Light Freezing Drizzle
8:08 AM 32.0 °F 21.2 °F - N/A% 29.73 in 0.1 mi ESE 16.1 mph - N/A   Light Freezing Drizzle
8:22 AM 32.0 °F 21.6 °F - N/A% 29.73 in 0.1 mi ESE 15.0 mph - N/A Rain Light Freezing Rain
8:26 AM 32.0 °F 22.1 °F - N/A% 29.72 in 0.1 mi ESE 13.8 mph - N/A   Heavy Freezing Drizzle
9:00 AM 32.0 °F 20.8 °F - N/A% 29.83 in 0.1 mi ESE 17.3 mph - N/A   Light Freezing Drizzle
9:03 AM 32.0 °F 20.5 °F - N/A% 29.72 in 0.1 mi ESE 18.4 mph - N/A   Clear
9:12 AM 32.0 °F 21.6 °F - N/A% 29.72 in 0.1 mi ESE 15.0 mph - N/A   Light Freezing Drizzle
9:19 AM 32.0 °F 22.5 °F - N/A% 29.72 in 0.1 mi ESE 12.7 mph - N/A   Light Freezing Drizzle
9:23 AM 32.0 °F 22.1 °F - N/A% 29.71 in 0.1 mi ESE 13.8 mph - N/A   Clear
9:24 AM 32.0 °F 22.1 °F - N/A% 29.71 in 0.1 mi ESE 13.8 mph - N/A   Light Freezing Drizzle
9:25 AM 32.0 °F 22.1 °F - N/A% 29.71 in 0.1 mi ESE 13.8 mph - N/A   Clear
9:26 AM 32.0 °F 22.1 °F - N/A% 29.71 in 0.1 mi ESE 13.8 mph 19.6 mph N/A   Light Freezing Drizzle
9:31 AM 32.0 °F 20.1 °F - N/A% 29.71 in 0.1 mi ESE 19.6 mph - N/A   Clear
9:43 AM 32.0 °F 20.1 °F - N/A% 29.71 in 0.1 mi ESE 19.6 mph - N/A   Clear
9:51 AM 32.0 °F 20.5 °F - N/A% 29.71 in 0.1 mi ESE 18.4 mph - N/A   Clear
9:53 AM 32.0 °F 20.5 °F - N/A% 29.71 in 0.1 mi ESE 18.4 mph - N/A   Light Freezing Drizzle
10:00 AM 32.0 °F 21.2 °F - N/A% 29.83 in 0.1 mi ESE 16.1 mph - N/A   Light Freezing Drizzle
10:02 AM 32.0 °F 20.5 °F - N/A% 29.71 in 0.1 mi ESE 18.4 mph - N/A   Clear
10:23 AM 32.0 °F 20.1 °F - N/A% 29.70 in 0.5 mi ESE 19.6 mph - N/A   Light Freezing Drizzle
10:25 AM 32.0 °F 20.5 °F - N/A% 29.70 in 1.5 mi ESE 18.4 mph - N/A   Light Freezing Drizzle
10:26 AM 32.0 °F 20.1 °F - N/A% 29.70 in 2.5 mi ESE 19.6 mph - N/A   Light Freezing Drizzle
10:31 AM 32.0 °F 19.2 °F - N/A% 29.70 in 3.0 mi ESE 23.0 mph - N/A   Light Freezing Drizzle
10:36 AM 32.0 °F 20.1 °F - N/A% 29.70 in 9.0 mi ESE 19.6 mph 25.3 mph N/A   Light Freezing Drizzle
10:39 AM 32.0 °F 19.5 °F - N/A% 29.69 in 9.0 mi ESE 21.9 mph - N/A   Light Freezing Drizzle
10:42 AM 32.0 °F 19.8 °F - N/A% 29.69 in 9.0 mi ESE 20.7 mph - N/A   Overcast
10:48 AM 32.0 °F 19.8 °F - N/A% 29.69 in 9.0 mi ESE 20.7 mph - N/A   Overcast
11:00 AM 31 °F - - % 29.80 in 9 mi ESE 26.5 mph - -   Overcast
11:00 AM 32.0 °F 18.4 °F - N/A% 29.80 in 9.0 mi ESE 26.5 mph - N/A   Overcast
11:11 AM 32.0 °F 18.6 °F - N/A% 29.68 in 8.0 mi ESE 25.3 mph 31.1 mph N/A   Overcast
12:00 PM 32.0 °F 18.4 °F - N/A% 29.78 in 3.5 mi ESE 26.5 mph - N/A   Overcast
12:29 PM 32.0 °F 18.4 °F - N/A% 29.65 in 3.0 mi ESE 26.5 mph 33.4 mph N/A   Overcast
12:37 PM 32.0 °F 17.6 °F - N/A% 29.64 in 2.1 mi ESE 29.9 mph 35.7 mph N/A   Overcast
12:42 PM 32.0 °F 18.1 °F - N/A% 29.64 in 2.1 mi ESE 27.6 mph 35.7 mph N/A   Overcast
12:48 PM 32.0 °F 17.9 °F - N/A% 29.64 in 2.8 mi ESE 28.8 mph - N/A   Overcast
12:53 PM 32.0 °F 18.4 °F - N/A% 29.63 in 2.8 mi ESE 26.5 mph 34.5 mph N/A   Overcast
1:00 PM 32.0 °F 17.6 °F - N/A% 29.75 in 2.1 mi ESE 29.9 mph - N/A   Overcast
1:11 PM 32.0 °F 17.9 °F - N/A% 29.63 in 2.4 mi ESE 28.8 mph - N/A   Overcast
1:17 PM 32.0 °F 17.4 °F - N/A% 29.63 in 1.5 mi ESE 31.1 mph - N/A   Overcast
1:19 PM 32.0 °F 17.6 °F - N/A% 29.63 in 1.4 mi ESE 29.9 mph - N/A   Overcast
1:21 PM 32.0 °F 17.2 °F - N/A% 29.63 in 1.2 mi ESE 32.2 mph - N/A   Overcast
1:27 PM 32.0 °F 17.4 °F - N/A% 29.63 in 1.1 mi ESE 31.1 mph - N/A   Overcast
1:28 PM 32.0 °F 17.6 °F - N/A% 29.63 in 1.1 mi ESE 29.9 mph - N/A   Overcast
1:34 PM 32.0 °F 17.9 °F - N/A% 29.62 in 1.0 mi ESE 28.8 mph 36.8 mph N/A   Overcast
1:39 PM 32.0 °F 17.6 °F - N/A% 29.62 in 0.6 mi ESE 29.9 mph 36.8 mph N/A   Overcast
1:49 PM 32.0 °F 18.4 °F - N/A% 29.62 in 0.4 mi East 26.5 mph - N/A   Overcast
2:00 PM 32 °F - - % 29.74 in 0 mi ESE 27.6 mph - -  
2:00 PM 32.0 °F 18.1 °F - N/A% 29.74 in 0.1 mi ESE 27.6 mph 33.4 mph N/A   Clear
2:07 PM 32.0 °F 17.9 °F - N/A% 29.62 in 0.1 mi ESE 28.8 mph - N/A   Clear
2:22 PM 32.0 °F 17.2 °F - N/A% 29.62 in 0.1 mi ESE 32.2 mph - N/A Rain Light Freezing Rain
3:00 PM 30.2 °F 15.4 °F - N/A% 29.73 in 0.1 mi ESE 28.8 mph - N/A Rain Light Freezing Rain
3:09 PM 30.2 °F 15.2 °F - N/A% 29.61 in 0.1 mi ESE 29.9 mph - N/A   Heavy Freezing Drizzle
3:15 PM 30.2 °F 14.9 °F - N/A% 29.61 in 0.1 mi ESE 31.1 mph - N/A Rain Light Freezing Rain
3:39 PM 30.2 °F 14.9 °F - N/A% 29.59 in 0.1 mi ESE 31.1 mph - N/A   Heavy Freezing Drizzle
3:45 PM 30.2 °F 14.9 °F - N/A% 29.59 in 0.1 mi ESE 31.1 mph 36.8 mph N/A Rain Light Freezing Rain
4:00 PM 30.2 °F 14.9 °F - N/A% 29.71 in 0.1 mi ESE 31.1 mph - N/A Rain Light Freezing Rain
4:44 PM 30.2 °F 15.2 °F - N/A% 29.59 in 0.1 mi ESE 29.9 mph - N/A   Clear
4:55 PM 30.2 °F 14.7 °F - N/A% 29.59 in 0.1 mi ESE 32.2 mph - N/A Rain Light Freezing Rain
5:00 PM 31 °F - - % 29.70 in 0 mi ESE 32.2 mph - -   Heavy Freezing Rain
5:00 PM 30.2 °F 14.7 °F - N/A% 29.70 in 0.1 mi ESE 32.2 mph - N/A Rain Light Freezing Rain
5:20 PM 30.2 °F 14.7 °F - N/A% 29.58 in 0.1 mi ESE 32.2 mph 38.0 mph N/A   Heavy Freezing Drizzle
6:00 PM 32.0 °F 17.2 °F - N/A% 29.69 in 0.1 mi ESE 32.2 mph - N/A   Light Freezing Drizzle
7:00 PM 32.0 °F 17.2 °F - N/A% 29.69 in 0.1 mi ESE 32.2 mph - N/A   Light Freezing Drizzle
8:00 PM 32 °F - - % 29.70 in 0 mi ESE 27.6 mph - -  
8:00 PM 32.0 °F 18.4 °F - N/A% 29.70 in 0.1 mi ESE 26.5 mph - N/A   Light Freezing Drizzle
8:34 PM 32.0 °F 18.1 °F - N/A% 29.58 in 0.1 mi ESE 27.6 mph - N/A Rain Light Freezing Rain
9:00 PM 32.0 °F 18.4 °F - N/A% 29.70 in 0.1 mi SE 26.5 mph - N/A Rain Light Freezing Rain
9:16 PM 32.0 °F 19.2 °F - N/A% 29.58 in 0.1 mi SE 23.0 mph 28.8 mph N/A Rain Heavy Rain
9:41 PM 33.8 °F 21.9 °F - N/A% 29.58 in 0.1 mi SE 21.9 mph - N/A   Clear
9:48 PM 33.8 °F 21.3 °F - N/A% 29.58 in 0.1 mi SE 24.2 mph - N/A Rain Rain
9:49 PM 33.8 °F 21.0 °F - N/A% 29.58 in 0.1 mi SE 25.3 mph - N/A Rain Light Freezing Rain
9:51 PM 33.8 °F 21.3 °F - N/A% 29.58 in 0.1 mi SE 24.2 mph - N/A Rain Rain
10:00 PM 33.8 °F 21.3 °F - N/A% 29.70 in 0.1 mi SE 24.2 mph - N/A Rain Rain
11:00 PM 35 °F - - % 29.70 in 0 mi SSE 24.2 mph - - Rain Light Rain
11:00 PM 33.8 °F 20.8 °F - N/A% 29.70 in 0.1 mi SSE 26.5 mph - N/A Rain Light Rain